Location: Newark
(58.8333°N, 23.5833°E)
Time: 03:06:16
(UTC+00:00)

Transit 2A Rocket - All Passes

Search period start: 14 November 2019 00:00
Search period end: 24 November 2019 00:00
Orbit: 594 x 909 km, 66.7° (Epoch: 13 November)

Date Brightness Start Highest point End Pass type
(mag) Time Alt. Az. Time Alt. Az. Time Alt. Az.
14 Nov - 01:14:44 10° WNW 01:18:42 30° N 01:22:33 10° NE visible
14 Nov - 02:58:09 10° NW 03:02:12 35° NNE 03:06:12 10° E visible
14 Nov - 04:40:49 10° NW 04:45:10 89° NE 04:49:35 10° SE visible
14 Nov - 06:23:53 10° WNW 06:27:13 22° WSW 06:30:35 10° SSW daylight
14 Nov - 21:06:35 10° S 21:10:34 28° ESE 21:14:22 10° ENE night (unlit)
14 Nov - 22:48:13 10° SW 22:52:48 75° NW 22:57:10 10° NE night (unlit)
15 Nov - 00:31:50 10° W 00:35:54 33° NNW 00:39:51 10° NE visible
15 Nov - 02:15:29 10° NW 02:19:25 31° N 02:23:19 10° ENE visible
15 Nov - 03:58:17 10° NW 04:02:36 65° NE 04:06:57 10° ESE visible
15 Nov - 05:41:03 10° WNW 05:44:55 32° WSW 05:48:52 10° S daylight
15 Nov - 20:25:01 10° SSE 20:28:17 19° ESE 20:31:26 10° ENE night (unlit)
15 Nov - 22:05:39 10° SW 22:10:15 79° SE 22:14:38 10° NE night (unlit)
15 Nov - 23:48:55 10° W 23:53:08 38° NNW 23:57:13 10° NE visible
16 Nov - 01:32:44 10° WNW 01:36:36 29° N 01:40:26 10° ENE visible
16 Nov - 03:15:43 10° NW 03:19:57 49° NNE 03:24:12 10° ESE visible
16 Nov - 04:58:21 10° NW 05:02:32 49° SW 05:06:48 10° SSE visible
16 Nov - 06:43:17 10° W 06:44:06 10° WSW 06:44:56 10° WSW daylight
16 Nov - 19:44:11 10° SE 19:46:05 12° ESE 19:47:57 10° E night (unlit)
16 Nov - 21:23:16 10° SSW 21:27:46 54° SE 21:32:03 10° NE night (unlit)
16 Nov - 23:06:03 10° WSW 23:10:25 47° NNW 23:14:38 10° NE night (unlit)
17 Nov - 00:49:54 10° WNW 00:53:47 29° N 00:57:37 10° ENE visible
17 Nov - 02:33:08 10° NW 02:37:15 39° NNE 02:41:22 10° E visible
17 Nov - 04:15:46 10° NW 04:20:05 73° SW 04:24:29 10° SE visible
17 Nov - 05:59:11 10° WNW 06:01:56 17° WSW 06:04:45 10° SSW daylight
17 Nov - 20:41:08 10° S 20:45:22 36° SE 20:49:24 10° ENE night (unlit)
17 Nov - 22:23:16 10° WSW 22:27:46 62° NW 22:32:05 10° NE night (unlit)
18 Nov - 00:07:01 10° WNW 00:10:58 31° N 00:14:52 10° NE visible
18 Nov - 01:50:31 10° NW 01:54:30 34° NNE 01:58:28 10° E visible
18 Nov - 03:33:12 10° NW 03:37:33 80° NE 03:41:58 10° SE visible
18 Nov - 05:16:08 10° WNW 05:19:42 25° WSW 05:23:19 10° S visible
18 Nov - 19:59:17 10° S 20:03:02 25° ESE 20:06:38 10° ENE night (unlit)
18 Nov - 21:40:36 10° SW 21:45:10 84° NW 21:49:33 10° NE night (unlit)
18 Nov - 23:24:06 10° W 23:28:12 34° NNW 23:32:11 10° NE night (unlit)
19 Nov - 01:07:48 10° NW 01:11:42 30° N 01:15:35 10° ENE visible
19 Nov - 02:50:40 10° NW 02:54:57 59° NNE 02:59:17 10° ESE visible
19 Nov - 04:33:21 10° WNW 04:37:22 37° SW 04:41:28 10° SSE visible
19 Nov - 19:17:55 10° SSE 19:20:47 16° ESE 19:23:34 10° ENE night (unlit)
19 Nov - 20:58:06 10° SW 21:02:39 70° SE 21:07:00 10° NE night (unlit)
19 Nov - 22:41:13 10° W 22:45:27 41° NNW 22:49:35 10° NE night (unlit)
20 Nov - 00:25:02 10° WNW 00:28:53 29° N 00:32:43 10° ENE visible
20 Nov - 02:08:06 10° NW 02:12:17 45° NNE 02:16:30 10° E visible
20 Nov - 03:50:43 10° NW 03:54:57 56° SW 03:59:18 10° SSE visible
20 Nov - 05:34:47 10° W 05:36:38 12° WSW 05:38:30 10° SW visible
20 Nov - 18:37:51 10° ESE 18:38:36 10° ESE 18:39:22 10° E night (unlit)
20 Nov - 20:15:48 10° SSW 20:20:12 47° SE 20:24:24 10° NE night (unlit)
20 Nov - 21:58:22 10° WSW 22:02:45 51° NNW 22:07:00 10° NE night (unlit)
20 Nov - 23:42:11 10° WNW 23:46:05 30° N 23:49:55 10° ENE night (unlit)
21 Nov - 01:25:30 10° NW 01:29:34 37° NNE 01:33:38 10° E visible
21 Nov - 03:08:08 10° NW 03:12:28 82° SW 03:16:54 10° SE visible
21 Nov - 04:51:20 10° WNW 04:54:26 19° WSW 04:57:37 10° SSW visible
21 Nov - 19:33:45 10° S 19:37:49 32° ESE 19:41:42 10° ENE night (unlit)
21 Nov - 21:15:37 10° WSW 21:20:07 68° NW 21:24:28 10° NE night (unlit)
21 Nov - 22:59:18 10° WNW 23:03:17 32° NNW 23:07:11 10° NE night (unlit)
22 Nov - 00:42:51 10° NW 00:46:48 32° NNE 00:50:44 10° ENE visible
22 Nov - 02:25:35 10° NW 02:29:55 72° NE 02:34:20 10° ESE visible
22 Nov - 04:08:24 10° WNW 04:12:09 29° WSW 04:16:01 10° S visible
22 Nov - 18:52:03 10° SSE 18:55:31 21° ESE 18:58:51 10° ENE night (unlit)
22 Nov - 20:33:00 10° SW 20:37:33 87° SE 20:41:55 10° NE night (unlit)
22 Nov - 22:16:23 10° W 22:20:30 36° NNW 22:24:32 10° NE night (unlit)
23 Nov - 00:00:08 10° NW 00:03:59 30° N 00:07:50 10° ENE night (unlit)
23 Nov - 01:43:02 10° NW 01:47:17 53° NNE 01:51:37 10° ESE visible
23 Nov - 03:25:41 10° NW 03:29:48 43° SW 03:34:01 10° SSE visible
23 Nov - 18:10:55 10° SE 18:13:17 14° ESE 18:15:36 10° E night (unlit)
23 Nov - 19:50:34 10° SSW 19:55:03 61° SE 19:59:21 10° NE night (unlit)
23 Nov - 21:33:30 10° W 21:37:46 44° NNW 21:41:56 10° NE night (unlit)
23 Nov - 23:17:20 10° WNW 23:21:11 29° N 23:25:00 10° ENE night (unlit)
